Regional Weather Roundup
Issued by NWS Sterling, VA

Home | Current Version | Previous Version | Graphics & Text | Print | Product List | Glossary On
Versions: 1 2 3 4 5 6 7 8 9 10 11 12 13 14 15 16 17 18 19 20 21 22 23 24 25 26 27 28 29 30 31 32 33 34 35 36 37 38 39 40 41 42 43 44 45 46 47 48 49
000
ASUS41 KLWX 280010
RWRLWX

REGIONAL WEATHER ROUNDUP
NATIONAL WEATHER SERVICE BALTIMORE MD/WASHINGTON DC
800 PM EDT FRI MAR 27 2015

Note: "FAIR" indicates few or no clouds below 12,000 feet
with no significant weather and/or obstructions to visibility.
 TC=TEMPERATURE CELSIUS

 * =Non NWS site. Station does not report precipitation (e.g. rain,
    snow, etc.), thunder, or fog.

DCZ001-MDZ009-015-VAZ040>042-051-053>054-280100-
WASHINGTON METRO

CITY           SKY/WX    TMP DP  RH WIND       PRES   REMARKS
WASHINGTON NAT CLOUDY    49  26  41 NW8       29.81R
DULLES         CLOUDY    45  26  47 NW9       29.80R
ANDREWS AFB    MOCLDY    46  28  49 NW9       29.78R
FT BELVOIR     CLOUDY    47  26  43 NW6       29.80R
QUANTICO       CLOUDY    48  29  47 N7        29.81R
COLLEGE PARK*  MOCLDY    46  27  46 NW5       29.80R
LEESBURG*      CLOUDY    45  30  57 N13G18    29.82R
MANASSAS*      CLOUDY    46  28  49 N7        29.81R
GAITHERSBURG*  CLOUDY    45  25  45 NW7       29.83R

$$

MDZ006>007-011-014-280100-
BALTIMORE METRO

CITY           SKY/WX    TMP DP  RH WIND       PRES   REMARKS
BWI AIRPORT    MOCLDY    45  25  45 VRB3      29.79R
MD SCIENCE CTR   N/A     47  24  40 MISG      29.79R
MARTIN STATE   MOCLDY    46  28  49 NW6       29.80R
ANNAPOLIS      MOCLDY    43  37  79 CALM      29.79R

$$

MDZ012-015-019>023-280100-
MARYLAND EASTERN SHORE

CITY           SKY/WX    TMP DP  RH WIND       PRES   REMARKS
OCEAN CITY     LGT RAIN  38  36  92 N8        29.78S
SALISBURY      CLOUDY    39  36  89 CALM      29.77F
BAY BRIDGE AP*   N/A     41  37  87 CALM      29.80R
CAMBRIDGE*     CLOUDY    43  37  81 CALM      29.78S
EASTON*        PTCLDY    41  41 100 CALM      29.82R

$$

MDZ017>025-280100-
SOUTHERN MARYLAND

CITY           SKY/WX    TMP DP  RH WIND       PRES   REMARKS
PATUXENT RIVER CLOUDY    40  36  86 W3        29.79R
ST INIGOES     CLOUDY    41  35  79 CALM      29.78F
LEONARDTOWN*   CLOUDY    39  36  87 CALM      29.81R

$$

MDZ003>005-280100-
NORTH CENTRAL MARYLAND

CITY           SKY/WX    TMP DP  RH WIND       PRES   REMARKS
FREDERICK*     CLOUDY    46  21  36 NW10      29.84R
HAGERSTOWN APT CLOUDY    41  23  48 NW13      29.81R
WESTMINSTER*   CLOUDY    43  25  49 NW3       29.79R

$$

MDZ501>502-280100-
WESTERN MARYLAND

CITY           SKY/WX    TMP DP  RH WIND       PRES   REMARKS
OAKLAND*       CLOUDY    27 N/A N/A NW8       29.78R FOG     WCI  18
CUMBERLAND*    MOCLDY    37  23  56 NW7       29.89R

$$

VAZ025>031-280100-
SHENANDOAH VALLEY

CITY           SKY/WX    TMP DP  RH WIND       PRES   REMARKS
WINCHESTER*    CLOUDY    43  19  39 NW14      29.82R
FRONT ROYAL*   CLOUDY    41  27  56 NW12      29.80R
LURAY*         FAIR      45  28  53 NW10G16   29.80R
NEW MARKET*    MOCLDY    40  23  50 W5        29.80S
STAUNTON*      CLOUDY    42  24  48 NW12      29.81R
WAYNESBORO*    CLOUDY    41  26  54 N10G17    29.78R

$$

WVZ021-048>050-054>055-280100-
EASTERN WEST VIRGINIA PANHANDLE

CITY           SKY/WX    TMP DP  RH WIND       PRES   REMARKS
MARTINSBURG    CLOUDY    43  23  45 NW12      29.83R
PETERSBURG*    CLOUDY    40  23  50 NW5       29.85S

$$

VAZ036>039-050-280100-
CENTRAL FOOTHILLS

CITY           SKY/WX    TMP DP  RH WIND       PRES   REMARKS
CHARLOTTESVILL CLOUDY    45  35  68 SE3       29.78R
CULPEPER*      CLOUDY    46  30  53 N9        29.80S
ORANGE*        CLOUDY    45  34  65 CALM      29.80S
GORDONSVILLE*  CLOUDY    43  37  80 CALM      29.77S
WARRENTON*     CLOUDY    46  35  66 N10       29.79S

$$

VAZ055>057-280100-
NORTH AND CENTRAL PIEDMONT

CITY           SKY/WX    TMP DP  RH WIND       PRES   REMARKS
FREDERICKSBRG* CLOUDY    48  31  52 N6        29.78F
STAFFORD*      CLOUDY    44  28  52 N5        29.83R

$$

NCZ024-NYZ072-PAZ021-071-VAZ022-071-280100-
OTHER REGIONAL OBSERVATIONS

CITY           SKY/WX    TMP DP  RH WIND       PRES   REMARKS
NEW YORK CITY  CLOUDY    44  26  49 VRB3      29.78R
PHILADELPHIA   CLOUDY    45  26  47 N9        29.78R
PITTSBURGH     CLOUDY    28  17  63 NW13      29.91S WCI  17
ROANOKE        MOCLDY    44  23  43 N16       29.80R
RICHMOND       CLOUDY    42  37  82 S3        29.79S
RALEIGH        LGT RAIN  43  37  81 NE8       29.81R

$$

ANZ530>537-280100-
MARINE OBSERVATIONS

STATION/POSITION TIME  TEMP    WIND        PRES
                       AIR SEA DIR/SP/G
                 (UTC) (F)     (DEG/KT/KT) (MB)
THOMAS PT LIGHT  0000                        N/A
BALT KEY BRIDGE  2300   48     320/  9/ 11 1008.0R
COVE POINT       2300   39     180/  2/  3 1008.4R
LEWISETTA        2300   40 47              1008.5R
SOLOMONS ISLAND  2300      43                N/A
PINEY POINT      2312          210/  1/  2   N/A

$$




USA.gov is the U.S. government's official web portal to all federal, state and local government web resources and services.